GLOBALSTAR M071 [P]

Last updated on Thu Dec 28 2023 00:02:57 GMT+0000 (Coordinated Universal Time)

1 31576U 07020F 23361.27309206 -.00000055 00000+0 27073-3 0 9997 2 31576 52.0088 24.5145 0000369 24.7274 55.7111 12.62263885427806
UTC large
Height (km)
Speed (km/s)
/
Latitude / Longitude
Inclination (degrees)
Orbital Period (minutes)
Azimuth
Elevation
Range (km)
Doppler Factor

Next 0 passes for location: London (51.5072 / 0.1276)

Sorry there are no passes over London.